User: anonymous   Login
Location: Unspecified
(0.0000°N, 0.0000°E)
Time: 07:35:52
(UTC+00:00)
Language:

RISAT 1 - Orbit

View from above orbital plane
View from above orbital plane
View from above satellite
View from above satellite

Ground track
Ground track

The orbit data is extracted from the following two-line orbital elements,

1 38248U 12017A   14351.83261008  .00003776  00000-0  24318-3 0  9790
2 38248 097.5635 356.3704 0001878 333.4796 127.5089 15.08944979145658
Epoch (UTC): 17 December 2014 19:58:57
Eccentricity: 0.0001878
inclination: 97.5635°
perigee height: 538 km
apogee height: 541 km
right ascension of ascending node: 356.3704°
argument of perigee: 333.4796°
revolutions per day: 15.08944979
mean anomaly at epoch: 127.5089°
orbit number at epoch: 14565

The dashed part of the orbit path shows where the satellite is in the earth's shadow,  

DLR